Location: Palomar Mountain Lodge
(33.3110°N, 116.8495°W)
Time: 07:59:18
(UTC-07:00)

Cosmos 1386 Rocket - Pass Details

Date: 14 June 2018
Orbit: 930 x 1006 km, 83.0° (Epoch: 19 June)

Event Time Altitude Azimuth Distance (km) Brightness Sun altitude
Rises 23:29:26 0° 354° (N) 3,638 8.6 -30.4°
Reaches altitude 10° 23:31:57 10° 355° (N) 2,678 7.6 -30.6°
Enters shadow 23:37:32 76° 2° (N) 970 4.4 -31.0°
